[[{"header":{"parameterUnit":"m.s-1","parameterCategory":1,"la1":30.2991,"la2":30.254,"lo1":-89.0895,"lo2":-89.0444,"dy":0.0017,"dx":0.0017,"nx":28,"ny":28,"refTime":"2023-09-17T21:00:00:Z","depth":0,"parameterNumber":2,"parameterNumberName":"U-component_of_WINDS"},"data":[0,0,0,0,0,0,0,0,0,0,0,0,0,0,0,0,0,0,0,0,0,0,0,0,0,0,0,0,0,0,0,0,0,0,0,0,0,0,0,0,0,0,0,0,0,0,0,0,0,0,0,0,0,0,0,0,0,0,-2.4047,-2.4048,0,-2.411,-2.4111,-2.4111,-2.3967,-2.3962,-2.3957,-2.3953,-2.402,-2.4026,-2.4032,0,0,0,0,0,0,0,0,0,0,0,0,0,-2.3804,-2.3809,-2.4047,-2.4048,-2.4049,-2.411,-2.4111,-2.4112,-2.3968,-2.3962,-2.3956,-2.3951,-2.4018,-2.4025,-2.4033,0,0,0,0,0,0,0,0,0,0,0,0,0,-2.3893,-2.3811,-2.4047,-2.3984,-2.3979,-2.411,-2.4111,-2.4112,-2.3969,-2.3962,-2.3955,-2.3948,-2.4016,-2.4025,-2.4034,-2.4229,0,0,-2.4062,-2.4065,0,0,0,0,0,0,0,0,-2.3888,-2.3902,-2.3993,-2.3989,-2.3983,-2.4023,-2.4049,-2.4151,-2.397,-2.3973,-2.3953,-2.3945,-2.4027,-2.4035,-2.4062,-2.4232,-2.4235,-2.4062,-2.4068,-2.4072,-2.4074,0,0,0,0,0,0,0,-2.3882,-2.3898,-2.4072,-2.3994,-2.3989,-2.3953,-2.3958,-2.4068,-2.4038,-2.3972,-2.3962,-2.3971,-2.4023,-2.4053,-2.4062,-2.4236,-2.4062,-2.407,-2.4076,-2.4079,-2.4569,-2.4576,0,0,0,0,0,0,-2.3884,-2.3894,-2.407,-2.4074,-2.3918,-2.3963,-2.3969,-2.4018,-2.4037,-2.4033,-2.3977,-2.3964,-2.4041,-2.4052,-2.4064,-2.4295,-2.4072,-2.408,-2.4086,-2.4562,-2.4571,-2.4579,0,0,0,0,0,0,-2.3879,-2.3901,-2.4068,-2.3981,-2.4,-2.3975,-2.4031,-2.4023,-2.4053,-2.404,-2.4034,-2.4013,-2.4036,-2.4051,-2.4189,-2.4295,-2.4084,-2.4093,-2.4553,-2.4565,-2.4575,-2.4758,0,0,0,0,0,0,-2.3873,-2.39,-2.3974,-2.3984,-2.4005,-2.4192,-2.4037,-2.4029,-2.4068,-2.4052,-2.4073,-2.4069,-2.4032,-2.4176,-2.4198,-2.4304,-2.41,-2.4543,-2.4558,-2.4571,-2.4742,-2.4774,-2.4801,0,0,0,0,0,-2.3864,-2.4023,-2.3978,-2.4,-2.4097,-2.4198,-2.421,-2.4163,-2.4078,-2.4152,-2.4143,-2.4069,-2.4279,-2.4191,-2.4215,-2.4325,-2.4537,-2.4554,-2.457,-2.4729,-2.4767,-2.48,0,0,0,0,0,0,-2.4027,-2.4023,-2.3974,-2.414,-2.4171,-2.4173,-2.4266,-2.4205,-2.4261,-2.4244,-2.4183,-2.4189,-2.4338,-2.4345,-2.4247,-2.4515,-2.4393,-2.4416,-2.4506,-2.4542,-2.4571,-2.4568,-2.4107,0,0,0,0,0,-2.4082,-2.4164,-2.4156,-2.4304,-2.4322,-2.4292,-2.4334,-2.4295,-2.4324,-2.4336,-2.4338,-2.437,-2.4442,-2.4492,-2.4559,-2.4741,-2.4744,-2.4828,-2.4858,-2.4882,-2.4903,-2.5,-2.5038,-2.4635,-2.4635,-2.4634,0,0,-2.4198,-2.4205,-2.4261,-2.4337,-2.4356,-2.4443,-2.4303,-2.4401,-2.4465,-2.4351,-2.4481,-2.4484,-2.4515,-2.4676,-2.4747,-2.4686,-2.5014,-2.4903,-2.4923,-2.4931,-2.5022,-2.506,-2.5094,-2.4646,-2.4644,-2.4642,0,0,-2.4452,-2.4466,-2.4591,-2.4612,-2.4642,-2.462,-2.465,-2.4662,-2.4659,-2.4788,-2.4705,-2.478,-2.4907,-2.4933,-2.4963,-2.5226,-2.516,-2.5249,-2.5404,-2.5499,-2.5531,-2.5559,-2.5655,-2.5689,-2.5269,-2.527,-2.527,0,-2.4592,-2.4719,-2.4663,-2.4767,-2.4803,-2.4702,-2.4828,-2.4852,-2.4903,-2.493,-2.486,-2.5017,-2.5031,-2.5197,-2.5261,-2.5288,-2.5322,-2.5248,-2.5531,-2.5558,-2.5584,-2.5674,-2.571,-2.528,-2.5279,-2.5278,-2.5277,0,-2.489,-2.498,-2.5077,-2.5128,-2.5174,-2.5289,-2.5251,-2.5305,-2.5261,-2.5247,-2.538,-2.5393,-2.546,-2.5496,-2.5455,-2.5657,-2.5618,-2.5541,-2.5418,-2.5634,-2.5718,-2.5752,-2.5296,-2.5292,-2.5289,-2.5286,0,0,-2.5253,-2.5269,-2.5306,-2.5328,-2.5352,-2.542,-2.553,-2.5595,-2.5643,-2.5681,-2.5772,-2.5881,-2.581,-2.5844,-2.5804,-2.5887,-2.6097,-2.58,-2.5799,-2.5856,-2.6321,-2.6381,-2.6422,-2.6051,-2.6058,-2.6063,-2.6319,0,-2.5506,-2.5694,-2.5646,-2.5834,-2.5916,-2.582,-2.5916,-2.5942,-2.5931,-2.5999,-2.5987,-2.6066,-2.5965,-2.5985,-2.6063,-2.6055,-2.619,-2.6035,-2.6138,-2.6142,-2.6135,-2.6465,-2.6529,-2.6771,-2.6351,-2.6357,-2.6361,0,-2.5827,-2.5876,-2.6073,-2.6083,-2.6116,-2.6203,-2.6258,-2.6324,-2.6351,-2.6337,-2.6375,-2.6318,-2.6427,-2.6301,-2.6451,-2.6347,-2.6385,-2.6387,-2.6396,-2.6406,-2.6267,-2.6486,-2.6846,-2.6884,-2.6412,-2.6407,-2.6404,0,-2.6074,-2.6189,-2.6321,-2.6342,-2.6357,-2.6421,-2.643,-2.645,-2.6492,-2.654,-2.6567,-2.6628,-2.6662,-2.6711,-2.6672,-2.6583,-2.6828,-2.6699,-2.6821,-2.6823,-2.688,-2.6877,-2.7253,-2.6901,-2.69,-2.69,-2.6899,0,-2.6363,-2.6488,-2.6432,-2.6514,-2.665,-2.6593,-2.6729,-2.6728,-2.6746,-2.6826,-2.6746,-2.6823,-2.6765,-2.6837,-2.6807,-2.6937,-2.6952,-2.6945,-2.6936,-2.6954,-2.6955,-2.698,-2.6963,-2.6909,-2.6907,-2.6905,-2.6903,0,-2.6663,-2.6631,-2.6769,-2.6771,-2.6775,-2.6875,-2.6877,-2.6953,-2.6935,-2.7038,-2.7059,-2.7032,-2.7112,-2.7077,-2.7162,-2.7142,-2.7308,-2.7276,-2.73,-2.7292,-2.7417,-2.7407,-2.7825,-2.7877,-2.7489,-2.7493,-2.7496,0,-2.6852,-2.6945,-2.6957,-2.7004,-2.7019,-2.7096,-2.7138,-2.7085,-2.7132,-2.7169,-2.7241,-2.7314,-2.7371,-2.7504,-2.7492,-2.7557,-2.7527,-2.7668,-2.7536,-2.7551,-2.7531,-2.7527,-2.7537,-2.7696,-2.7701,-2.7704,-2.7707,0,-2.719,-2.7169,-2.7232,-2.7291,-2.7343,-2.7386,-2.7423,-2.7466,-2.7414,-2.7471,-2.7552,-2.7596,-2.7682,-2.7756,-2.7812,-2.7822,-2.7758,-2.7748,-2.778,-2.7801,-2.7812,-2.7809,-2.7375,-2.774,-2.7737,-2.7734,-2.7733,-2.7731,-2.7441,-2.7519,-2.754,-2.7613,-2.7635,-2.767,-2.7742,-2.7733,-2.7799,-2.7865,-2.7828,-2.7923,-2.7947,-2.8016,-2.8034,-2.8108,-2.8052,-2.8098,-2.811,-2.8123,-2.8141,-2.7798,-2.8118,-2.8117,-2.8116,-2.8115,-2.8114,0,-2.7776,-2.7784,-2.7852,-2.7905,-2.7963,-2.7894,-2.7931,-2.7984,-2.8069,-2.8096,-2.8152,-2.8245,-2.8316,-2.8309,-2.8375,-2.8435,-2.8407,-2.8454,-2.8451,-2.8454,-2.8186,-2.8153,-2.8476,-2.8476,-2.8476,-2.8476,-2.8476,-2.8476,-2.7958,-2.8087,-2.8069,-2.8208,-2.8214,-2.8306,-2.8333,-2.8366,-2.8387,-2.8495,-2.8553,-2.8547,-2.8561,-2.8626,-2.8689,-2.8685,-2.8714,-2.8773,-2.8759,-2.8509,-2.8473,-2.8439,-2.8407,-2.8779,-2.8779,-2.902,-2.9023,-2.9024]},{"header":{"parameterUnit":"m.s-1","parameterCategory":1,"la1":30.2991,"la2":30.254,"lo1":-89.0895,"lo2":-89.0444,"dy":0.0017,"dx":0.0017,"nx":28,"ny":28,"refTime":"2023-09-17T21:00:00:Z","depth":0,"parameterNumber":3,"parameterNumberName":"V-component_of_WINDS"},"data":[0,0,0,0,0,0,0,0,0,0,0,0,0,0,0,0,0,0,0,0,0,0,0,0,0,0,0,0,0,0,0,0,0,0,0,0,0,0,0,0,0,0,0,0,0,0,0,0,0,0,0,0,0,0,0,0,0,0,-2.6223,-2.6224,0,-2.6296,-2.6297,-2.6297,-2.6281,-2.6279,-2.6278,-2.6277,-2.6349,-2.6352,-2.6355,0,0,0,0,0,0,0,0,0,0,0,0,0,-2.6067,-2.607,-2.6223,-2.6224,-2.6225,-2.6296,-2.6297,-2.6298,-2.6281,-2.6279,-2.6277,-2.6276,-2.6348,-2.6352,-2.6356,0,0,0,0,0,0,0,0,0,0,0,0,0,-2.6137,-2.6071,-2.6223,-2.6225,-2.6226,-2.6295,-2.6297,-2.6298,-2.6281,-2.6279,-2.6277,-2.6275,-2.6347,-2.6351,-2.6356,-2.6427,0,0,-2.6371,-2.6373,0,0,0,0,0,0,0,0,-2.6133,-2.6142,-2.6224,-2.6225,-2.6226,-2.6277,-2.6268,-2.6341,-2.6282,-2.626,-2.6277,-2.6274,-2.6327,-2.6333,-2.6351,-2.6431,-2.6434,-2.6371,-2.6374,-2.6376,-2.6378,0,0,0,0,0,0,0,-2.6128,-2.6139,-2.6252,-2.6225,-2.6226,-2.6222,-2.6229,-2.6282,-2.6304,-2.6262,-2.6261,-2.627,-2.6327,-2.6346,-2.6353,-2.6435,-2.6371,-2.6375,-2.6378,-2.638,-2.6575,-2.6578,0,0,0,0,0,0,-2.6122,-2.6135,-2.6249,-2.6254,-2.6174,-2.6226,-2.6235,-2.6263,-2.6303,-2.6308,-2.6271,-2.6269,-2.6339,-2.6347,-2.6355,-2.644,-2.6376,-2.6381,-2.6383,-2.6573,-2.6576,-2.6578,0,0,0,0,0,0,-2.6119,-2.6133,-2.6246,-2.6194,-2.6208,-2.6231,-2.6263,-2.6265,-2.6285,-2.6311,-2.6314,-2.6288,-2.6338,-2.6348,-2.6409,-2.6443,-2.6383,-2.6387,-2.657,-2.6574,-2.6577,-2.6612,0,0,0,0,0,0,-2.6115,-2.6132,-2.616,-2.6195,-2.6211,-2.63,-2.6265,-2.6268,-2.6294,-2.6291,-2.6327,-2.6331,-2.6337,-2.6402,-2.6414,-2.6448,-2.6391,-2.6568,-2.6572,-2.6576,-2.6608,-2.6616,-2.6623,0,0,0,0,0,-2.6109,-2.6166,-2.6161,-2.6175,-2.6247,-2.6302,-2.6312,-2.6318,-2.6296,-2.6324,-2.634,-2.633,-2.6437,-2.6409,-2.6422,-2.6458,-2.6565,-2.6571,-2.6576,-2.6605,-2.6615,-2.6623,0,0,0,0,0,0,-2.6134,-2.6171,-2.6166,-2.6236,-2.6266,-2.6299,-2.6335,-2.6329,-2.6365,-2.6361,-2.6367,-2.6375,-2.6437,-2.6454,-2.6421,-2.6529,-2.6498,-2.6506,-2.6516,-2.6525,-2.6533,-2.6527,-2.6395,0,0,0,0,0,-2.6147,-2.619,-2.622,-2.6279,-2.6295,-2.6312,-2.6337,-2.6339,-2.637,-2.6383,-2.6404,-2.6434,-2.6474,-2.6501,-2.6539,-2.6611,-2.6618,-2.6642,-2.6649,-2.6656,-2.6662,-2.67,-2.6711,-2.6595,-2.6595,-2.6595,0,0,-2.6176,-2.6201,-2.6228,-2.6285,-2.6308,-2.6352,-2.6323,-2.637,-2.6402,-2.639,-2.6449,-2.6465,-2.6499,-2.6565,-2.6595,-2.6581,-2.6696,-2.6662,-2.6667,-2.667,-2.6707,-2.6718,-2.6727,-2.6599,-2.6598,-2.6598,0,0,-2.6249,-2.6274,-2.6325,-2.635,-2.6386,-2.6397,-2.641,-2.6444,-2.6454,-2.6514,-2.6505,-2.6543,-2.6613,-2.6637,-2.6658,-2.6741,-2.6732,-2.6753,-2.6793,-2.683,-2.6839,-2.6847,-2.6876,-2.6887,-2.676,-2.676,-2.676,0,-2.628,-2.6346,-2.6352,-2.64,-2.6425,-2.6417,-2.6468,-2.6491,-2.6538,-2.6555,-2.6538,-2.6626,-2.6648,-2.6719,-2.6739,-2.6757,-2.6771,-2.6749,-2.6838,-2.6846,-2.6853,-2.6881,-2.6892,-2.6763,-2.6762,-2.6762,-2.6762,0,-2.6381,-2.6427,-2.6464,-2.651,-2.6539,-2.6589,-2.6602,-2.663,-2.663,-2.6643,-2.6703,-2.6729,-2.6773,-2.679,-2.679,-2.6862,-2.6851,-2.6836,-2.6806,-2.6867,-2.6893,-2.6903,-2.6766,-2.6765,-2.6764,-2.6764,0,0,-2.6472,-2.6521,-2.6535,-2.6555,-2.6595,-2.6629,-2.6678,-2.6722,-2.6745,-2.6778,-2.6818,-2.6878,-2.6864,-2.6888,-2.6891,-2.6923,-2.6986,-2.6904,-2.6905,-2.6918,-2.7065,-2.7076,-2.7088,-2.6981,-2.6983,-2.6984,-2.7062,0,-2.6549,-2.6636,-2.6643,-2.6721,-2.6763,-2.6755,-2.6797,-2.6825,-2.6838,-2.6875,-2.6889,-2.6931,-2.691,-2.6924,-2.6956,-2.6972,-2.7016,-2.6966,-2.7018,-2.7019,-2.7009,-2.7102,-2.7114,-2.7186,-2.7073,-2.7074,-2.7076,0,-2.6651,-2.6686,-2.6769,-2.6802,-2.6819,-2.6857,-2.6897,-2.6933,-2.6964,-2.6971,-2.6998,-2.6997,-2.7046,-2.7014,-2.7081,-2.7047,-2.7069,-2.708,-2.7082,-2.7087,-2.7051,-2.7109,-2.7209,-2.722,-2.7092,-2.709,-2.7089,0,-2.6708,-2.6777,-2.6835,-2.6853,-2.6893,-2.6919,-2.6937,-2.6967,-2.6992,-2.7027,-2.7043,-2.7083,-2.7104,-2.7135,-2.7143,-2.7119,-2.721,-2.7179,-2.7217,-2.7217,-2.7236,-2.7235,-2.7341,-2.7251,-2.725,-2.725,-2.725,0,-2.6793,-2.6843,-2.6861,-2.6897,-2.6952,-2.696,-2.7015,-2.7031,-2.7057,-2.7095,-2.709,-2.7126,-2.7135,-2.7172,-2.7179,-2.7234,-2.7244,-2.725,-2.7251,-2.725,-2.7249,-2.7264,-2.7259,-2.7253,-2.7253,-2.7252,-2.7251,0,-2.6866,-2.6881,-2.6943,-2.6976,-2.6985,-2.7025,-2.7052,-2.7086,-2.7098,-2.7146,-2.7158,-2.7177,-2.722,-2.7232,-2.7284,-2.7288,-2.7352,-2.7349,-2.7342,-2.7342,-2.7378,-2.7375,-2.7498,-2.7514,-2.7413,-2.7414,-2.7415,0,-2.692,-2.6958,-2.6995,-2.702,-2.704,-2.708,-2.7106,-2.7115,-2.7142,-2.718,-2.7209,-2.7252,-2.7286,-2.7356,-2.7374,-2.7413,-2.741,-2.7451,-2.7416,-2.7414,-2.741,-2.7408,-2.7411,-2.7457,-2.7458,-2.7459,-2.746,0,-2.7012,-2.7017,-2.7055,-2.7095,-2.7126,-2.7158,-2.7189,-2.721,-2.7222,-2.7253,-2.7297,-2.7324,-2.7377,-2.7419,-2.7459,-2.7476,-2.747,-2.7471,-2.7481,-2.748,-2.7474,-2.7478,-2.7359,-2.7468,-2.7467,-2.7466,-2.7466,-2.7465,-2.7077,-2.711,-2.7141,-2.7184,-2.7208,-2.7236,-2.7269,-2.7286,-2.7323,-2.7367,-2.737,-2.7418,-2.7448,-2.75,-2.752,-2.7557,-2.7545,-2.756,-2.7564,-2.7568,-2.7571,-2.7469,-2.7564,-2.7564,-2.7564,-2.7564,-2.7564,0,-2.7168,-2.7188,-2.7227,-2.727,-2.7303,-2.7295,-2.7328,-2.7356,-2.7398,-2.7427,-2.7461,-2.7512,-2.7553,-2.7574,-2.7614,-2.764,-2.7638,-2.765,-2.7648,-2.7652,-2.758,-2.7566,-2.7651,-2.7651,-2.7651,-2.7651,-2.7651,-2.7651,-2.722,-2.7276,-2.7285,-2.7353,-2.7372,-2.7419,-2.7439,-2.7465,-2.7488,-2.7545,-2.7579,-2.7592,-2.7618,-2.766,-2.7697,-2.7702,-2.7716,-2.773,-2.7734,-2.7666,-2.7657,-2.7648,-2.7636,-2.7733,-2.7733,-2.7802,-2.7803,-2.7804]}]]